Weather History for Greensboro, GA

Change the Weather History Date:

Saturday, January 12, 2013

  Actual Average (KDBN) Record (KDBN)
Temperature  
Mean Temperature 68 °F -  
Max Temperature 77 °F 54 °F 83 °F (1949)
Min Temperature 59 °F 30 °F 12 °F (1982)
Cooling Degree Days 3    
Growing Degree Days 18 (Base 50)    
Moisture  
Dew Point 58 °F    
Average Humidity 77    
Maximum Humidity 100    
Minimum Humidity 50    
Precipitation  
Precipitation 0.00 in - - ()
Sea Level Pressure  
Sea Level Pressure 30.11 in    
Wind  
Wind Speed 3 mph (South)    
Max Wind Speed 12 mph    
Max Gust Speed 17 mph    
Visibility 9 miles    
Events      
Averages and records for this station are not official NWS values.
T = Trace of Precipitation, MM = Missing Value Source: NWS Daily Summary

Daily Weather History Graph

Daily Weather History Graph

Search for Another Location

Airport:

Trip Planner

Search our weather history database for the weather conditions in past years. The results will help you decide how hot, cold, wet, or windy it might be!

Date:

Astronomy

Jan. 12, 2013 Rise Set
Actual Time 7:37 AM EST 5:44 PM EST
Civil Twilight 7:10 AM EST 6:12 PM EST
Nautical Twilight 6:39 AM EST 6:42 PM EST
Astronomical Twilight 6:09 AM EST 7:12 PM EST
Moon 8:00 AM EST (1/12) 7:06 PM EST (1/12)
Length of Visible Light 11h 01m
Length of Day
10h 07m
New Moon, 1% of the Moon is Illuminated
Jan 12
New Moon
Jan 18
First Quarter
Jan 26
Full
Feb 3
Last Quarter
Feb 10
New

Hourly Weather History & Observations

Time (EST) Temp. Dew Point Humidity Pressure Visibility Wind Dir Wind Speed Gust Speed Precip Events Conditions
12:15 AM 64.4 °F 60.8 °F 88% 30.14 in 10.0 mi South 3.5 mph - N/A   Mostly Cloudy
12:35 AM 62.6 °F 60.8 °F 94% 30.14 in 10.0 mi South 3.5 mph - N/A   Clear
12:55 AM 62.6 °F 60.8 °F 94% 30.14 in 10.0 mi Calm Calm - N/A   Clear
1:15 AM 62.6 °F 59.0 °F 88% 30.14 in 10.0 mi South 3.5 mph - N/A   Clear
1:35 AM 62.6 °F 59.0 °F 88% 30.14 in 10.0 mi South 4.6 mph - N/A   Clear
1:55 AM 62.6 °F 59.0 °F 88% 30.14 in 10.0 mi South 4.6 mph - N/A   Clear
2:15 AM 60.8 °F 59.0 °F 94% 30.14 in 10.0 mi Calm Calm - N/A   Clear
2:35 AM 60.8 °F 59.0 °F 94% 30.15 in 10.0 mi South 3.5 mph - N/A   Clear
2:55 AM 60.8 °F 59.0 °F 94% 30.14 in 10.0 mi South 3.5 mph - N/A   Clear
3:15 AM 60.8 °F 59.0 °F 94% 30.14 in 10.0 mi Calm Calm - N/A   Clear
3:35 AM 60.8 °F 59.0 °F 94% 30.14 in 10.0 mi SW 3.5 mph - N/A   Clear
3:55 AM 60.8 °F 59.0 °F 94% 30.13 in 10.0 mi South 3.5 mph - N/A   Clear
4:15 AM 60.8 °F 59.0 °F 94% 30.13 in 10.0 mi South 3.5 mph - N/A   Clear
4:35 AM 59.0 °F 57.2 °F 94% 30.13 in 7.0 mi South 3.5 mph - N/A   Clear
4:55 AM 59.0 °F 57.2 °F 94% 30.13 in 7.0 mi Calm Calm - N/A   Clear
5:15 AM 59.0 °F 57.2 °F 94% 30.12 in 7.0 mi Calm Calm - N/A   Clear
5:35 AM 59.0 °F 59.0 °F 100% 30.12 in 7.0 mi Calm Calm - N/A   Clear
5:55 AM 59.0 °F 59.0 °F 100% 30.12 in 7.0 mi Calm Calm - N/A   Clear
6:15 AM 59.0 °F 59.0 °F 100% 30.12 in 7.0 mi Calm Calm - N/A   Clear
6:35 AM 59.0 °F 57.2 °F 94% 30.13 in 7.0 mi South 3.5 mph - N/A   Clear
6:55 AM 59.0 °F 59.0 °F 100% 30.13 in 7.0 mi Calm Calm - N/A   Clear
7:15 AM 59.0 °F 59.0 °F 100% 30.13 in 7.0 mi Calm Calm - N/A   Clear
7:35 AM 59.0 °F 59.0 °F 100% 30.14 in 7.0 mi Calm Calm - N/A   Clear
7:55 AM 59.0 °F 59.0 °F 100% 30.14 in 7.0 mi Calm Calm - N/A   Clear
8:15 AM 59.0 °F 59.0 °F 100% 30.14 in 7.0 mi Calm Calm - N/A   Clear
8:35 AM 60.8 °F 59.0 °F 94% 30.14 in 7.0 mi Calm Calm - N/A   Clear
8:55 AM 62.6 °F 60.8 °F 94% 30.15 in 10.0 mi SSE 4.6 mph - N/A   Clear
9:15 AM 62.6 °F 60.8 °F 94% 30.15 in 10.0 mi South 3.5 mph - N/A   Clear
9:35 AM 64.4 °F 60.8 °F 88% 30.16 in 10.0 mi SSW 3.5 mph - N/A   Clear
9:55 AM 66.2 °F 60.8 °F 83% 30.17 in 10.0 mi SSW 4.6 mph - N/A   Clear
10:15 AM 68.0 °F 60.8 °F 78% 30.17 in 10.0 mi SSW 4.6 mph - N/A   Clear
10:35 AM 68.0 °F 60.8 °F 78% 30.16 in 10.0 mi SSW 5.8 mph - N/A   Clear
10:55 AM 68.0 °F 60.8 °F 78% 30.16 in 10.0 mi SW 3.5 mph - N/A   Clear
11:15 AM 69.8 °F 60.8 °F 73% 30.15 in 10.0 mi SW 4.6 mph - N/A   Clear
11:35 AM 69.8 °F 59.0 °F 68% 30.14 in 10.0 mi South 4.6 mph - N/A   Clear
11:55 AM 71.6 °F 59.0 °F 64% 30.13 in 10.0 mi SSW 8.1 mph - N/A   Clear
12:15 PM 71.6 °F 57.2 °F 60% 30.13 in 10.0 mi South 8.1 mph - N/A   Clear
12:55 PM 73.4 °F 55.4 °F 53% 30.12 in 10.0 mi SSW 11.5 mph 17.3 mph N/A   Clear
1:15 PM 73.4 °F 55.4 °F 53% 30.11 in 10.0 mi SSW 6.9 mph - N/A   Clear
1:35 PM 73.4 °F 55.4 °F 53% 30.10 in 10.0 mi South 9.2 mph - N/A   Clear
1:55 PM 73.4 °F 57.2 °F 57% 30.10 in 10.0 mi South 5.8 mph - N/A   Clear
2:35 PM 77.0 °F 57.2 °F 50% 30.09 in 10.0 mi SW 6.9 mph - N/A   Clear
2:55 PM 77.0 °F 57.2 °F 50% 30.09 in 10.0 mi South 8.1 mph - N/A   Clear
3:15 PM 75.2 °F 57.2 °F 53% 30.09 in 10.0 mi South 9.2 mph - N/A   Clear
3:35 PM 77.0 °F 57.2 °F 50% 30.09 in 10.0 mi SW 5.8 mph - N/A   Clear
3:55 PM 75.2 °F 57.2 °F 53% 30.08 in 10.0 mi SW 3.5 mph - N/A   Clear
4:15 PM 77.0 °F 57.2 °F 50% 30.08 in 10.0 mi SSW 3.5 mph - N/A   Clear
4:35 PM 77.0 °F 57.2 °F 50% 30.08 in 10.0 mi South 3.5 mph - N/A   Clear
4:55 PM 75.2 °F 55.4 °F 50% 30.08 in 10.0 mi South 6.9 mph - N/A   Clear
5:15 PM 73.4 °F 55.4 °F 53% 30.07 in 10.0 mi SSE 5.8 mph - N/A   Clear
5:35 PM 71.6 °F 55.4 °F 57% 30.08 in 10.0 mi SSE 4.6 mph - N/A   Clear
5:55 PM 71.6 °F 55.4 °F 57% 30.08 in 10.0 mi South 3.5 mph - N/A   Clear
6:15 PM 69.8 °F 55.4 °F 60% 30.07 in 10.0 mi Calm Calm - N/A   Clear
6:35 PM 69.8 °F 55.4 °F 60% 30.07 in 10.0 mi Calm Calm - N/A   Clear
7:15 PM 68.0 °F 55.4 °F 64% 30.07 in 10.0 mi Calm Calm - N/A   Clear
7:35 PM 68.0 °F 55.4 °F 64% 30.07 in 10.0 mi Calm Calm - N/A   Clear
8:15 PM 68.0 °F 55.4 °F 64% 30.07 in 10.0 mi Calm Calm - N/A   Clear
8:35 PM 64.4 °F 55.4 °F 73% 30.07 in 10.0 mi SE 3.5 mph - N/A   Scattered Clouds
8:55 PM 64.4 °F 55.4 °F 73% 30.07 in 10.0 mi SE 3.5 mph - N/A   Clear
9:15 PM 64.4 °F 57.2 °F 77% 30.07 in 10.0 mi SE 3.5 mph - N/A   Clear
9:35 PM 64.4 °F 55.4 °F 73% 30.08 in 10.0 mi SSE 3.5 mph - N/A   Clear
9:55 PM 64.4 °F 57.2 °F 77% 30.08 in 10.0 mi SSE 4.6 mph - N/A   Clear
10:15 PM 62.6 °F 55.4 °F 77% 30.07 in 10.0 mi SSE 4.6 mph - N/A   Clear
10:35 PM 62.6 °F 55.4 °F 77% 30.07 in 10.0 mi SE 3.5 mph - N/A   Clear
10:55 PM 62.6 °F 55.4 °F 77% 30.07 in 10.0 mi SE 4.6 mph - N/A   Clear
11:15 PM 62.6 °F 55.4 °F 77% 30.07 in 10.0 mi SE 4.6 mph - N/A   Clear
11:35 PM 62.6 °F 55.4 °F 77% 30.07 in 10.0 mi SSE 4.6 mph - N/A   Clear
11:55 PM 62.6 °F 55.4 °F 77% 30.07 in 10.0 mi SE 4.6 mph - N/A   Clear